CW4645 Weather Reports


time (UTC)temp
C
wind
direction
speed
KPH
gust
KPH
rain 1hr
cm
rain 24hr
cm
rain mn
cm
humidity
%
barometer
mb
20260906093047 21 168 0.0 0.0 0.00 0.00 0.00 94 1009.8
20260906091542 21 168 0.0 0.0 0.00 0.00 0.00 93 1009.9
20260906090040 21 168 0.0 0.0 0.00 0.00 0.00 93 1009.8
20260906084530 21 168 0.0 0.0 0.00 0.00 0.00 93 1009.6
20260906083057 21 168 0.0 0.0 0.00 0.00 0.00 93 1009.6
20260906081552 21 168 0.0 0.0 0.00 0.00 0.00 93 1009.8
20260906080042 21 168 0.0 0.0 0.00 0.00 0.00 93 1009.9
20260906074557 21 168 0.0 0.0 0.00 0.00 0.00 93 1009.7
20260906073049 22 168 0.0 0.0 0.00 0.00 0.00 93 1009.7
20260906071600 22 168 0.0 0.0 0.00 0.00 0.00 92 1009.6
20260906070032 22 168 0.0 0.0 0.00 0.00 0.00 92 1009.6
20260906064548 22 168 0.0 0.0 0.00 0.00 0.00 92 1009.7
20260906063058 22 168 0.0 0.0 0.00 0.00 0.00 92 1009.8
20260906061542 22 168 0.0 1.6 0.00 0.00 0.00 92 1010.0
20260906060033 22 167 0.0 0.0 0.00 0.00 0.00 92 1010.4
20260906054531 22 52 0.0 0.0 0.00 0.00 0.00 92 1010.5
20260906053043 22 52 0.0 0.0 0.00 0.00 0.00 92 1010.5
20260906051556 22 45 0.0 0.0 0.00 0.00 0.00 92 1010.7
20260906050029 22 45 0.0 0.0 0.00 0.00 0.00 92 1010.9
20260906044556 22 45 0.0 0.0 0.00 0.00 0.00 92 1010.9
20260906043048 22 65 0.0 0.0 0.00 0.00 0.00 92 1010.9
20260906041536 22 65 0.0 0.0 0.00 0.00 0.00 91 1010.9
20260906040058 22 65 0.0 0.0 0.00 0.00 0.00 91 1010.5
20260906034537 22 65 0.0 0.0 0.00 0.00 0.00 91 1010.8
20260906033046 22 65 0.0 0.0 0.00 0.00 0.00 90 1010.7
20260906031542 22 65 0.0 0.0 0.00 0.00 0.00 90 1010.8
20260906030052 22 65 0.0 0.0 0.00 0.00 0.00 89 1010.9
20260906024542 23 65 0.0 0.0 0.00 0.00 0.00 89 1011.0
20260906023056 23 65 0.0 0.0 0.00 0.00 0.00 89 1011.1
20260906021533 23 65 0.0 0.0 0.00 0.00 0.00 90 1011.0
20260906020107 23 65 0.0 0.0 0.00 0.00 0.00 90 1010.8
20260906014556 23 65 0.0 0.0 0.00 0.00 0.00 89 1010.4
20260906013032 23 65 0.0 0.0 0.00 0.00 0.00 88 1010.4
20260906011600 23 65 0.0 0.0 0.00 0.00 0.00 88 1010.3
20260906010039 24 65 0.0 0.0 0.00 0.00 0.00 87 1010.2
20260906004556 24 65 0.0 0.0 0.00 0.00 0.00 86 1010.4
20260906003044 25 65 0.0 0.0 0.00 0.00 0.00 85 1010.7
20260906001557 25 65 0.0 0.0 0.00 0.00 0.00 84 1010.9
20260906000047 25 65 0.0 0.0 0.00 0.00 0.00 83 1010.9
20260905234546 25 65 0.0 0.0 0.00 0.00 0.00 83 1010.9
20260905233059 25 65 0.0 0.0 0.00 0.00 0.00 82 1010.7
20260905231553 25 66 0.0 0.0 0.00 0.00 0.00 82 1010.0
20260905230057 25 67 0.0 1.6 0.00 0.00 0.00 81 1009.5
20260905224555 26 20 0.0 4.8 0.00 0.00 0.00 79 1009.4
20260905223045 27 319 0.0 1.6 0.00 0.00 0.00 77 1009.7
20260905221539 27 313 0.0 4.8 0.00 0.00 0.00 75 1010.2
20260905220035 27 92 0.0 3.2 0.00 0.00 0.00 72 1009.7
20260905214530 27 76 0.0 3.2 0.00 0.00 0.00 69 1009.6
20260905213100 30 71 0.0 8.0 0.00 0.00 0.00 66 1009.4
20260905211536 33 231 0.0 1.6 0.00 0.00 0.00 55 1008.5
20260905210047 35 205 0.0 1.6 0.00 0.00 0.00 50 1008.8
20260905204552 36 205 0.0 3.2 0.00 0.00 0.00 50 1008.8
20260905203039 37 195 0.0 3.2 0.00 0.00 0.00 46 1008.4
20260905201550 38 121 0.0 1.6 0.00 0.00 0.00 46 1008.7
20260905200120 37 58 0.0 0.0 0.00 0.00 0.00 53 1008.6
20260905194555 36 58 0.0 0.0 0.00 0.00 0.00 52 1008.8
20260905193028 37 58 0.0 1.6 0.00 0.00 0.00 49 1008.8
20260905191540 37 59 0.0 1.6 0.00 0.00 0.00 49 1009.0
20260905190047 37 32 0.0 8.0 0.00 0.00 0.00 53 1009.3
20260905184544 37 80 0.0 1.6 0.00 0.00 0.00 49 1009.6
20260905183026 37 125 0.0 3.2 0.00 0.00 0.00 53 1010.0
20260905181527 36 219 0.0 3.2 0.00 0.00 0.00 53 1010.4
20260905180052 35 272 0.0 1.6 0.00 0.00 0.00 56 1010.5
20260905174556 36 162 0.0 1.6 0.00 0.00 0.00 56 1010.7
20260905173044 35 156 0.0 3.2 0.00 0.00 0.00 59 1010.8
20260905171555 36 98 0.0 8.0 0.00 0.00 0.00 56 1011.0
20260905170028 35 20 0.0 1.6 0.00 0.00 0.00 57 1011.3
20260905164528 35 14 0.0 8.0 0.00 0.00 0.00 59 1011.6
20260905163034 35 85 0.0 3.2 0.00 0.00 0.00 59 1011.9
20260905161618 35 30 1.6 6.4 0.00 0.00 0.00 60 1012.0
20260905160055 33 5 0.0 1.6 0.00 0.00 0.00 65 1012.0
20260905154546 32 80 0.0 4.8 0.00 0.00 0.00 67 1012.4
20260905153049 32 109 1.6 8.0 0.00 0.00 0.00 69 1012.5
20260905151545 31 344 0.0 6.4 0.00 0.00 0.00 72 1012.5
20260905150038 31 156 0.0 4.8 0.00 0.00 0.00 75 1012.9
20260905144533 30 11 0.0 4.8 0.00 0.00 0.00 76 1013.0
20260905143035 30 20 0.0 3.2 0.00 0.00 0.00 79 1013.0
20260905141543 29 56 0.0 0.0 0.00 0.00 0.00 82 1012.9
20260905140038 28 56 0.0 0.0 0.00 0.00 0.00 84 1013.0
20260905134542 27 56 1.6 4.8 0.00 0.00 0.00 87 1013.0
20260905133050 27 37 0.0 6.4 0.00 0.00 0.00 88 1013.0
20260905131601 26 26 0.0 0.0 0.00 0.00 0.00 91 1013.1
20260905130031 26 26 0.0 0.0 0.00 0.00 0.00 92 1013.3
20260905124606 25 26 0.0 0.0 0.00 0.00 0.00 94 1013.1
20260905123056 25 26 0.0 0.0 0.00 0.00 0.00 94 1013.0
20260905120045 23 26 0.0 0.0 0.00 0.00 0.00 94 1012.9
20260905114542 23 26 0.0 0.0 0.00 0.00 0.00 94 1012.9
20260905113038 22 26 0.0 0.0 0.00 0.00 0.00 94 1012.5
20260905111529 22 26 0.0 0.0 0.00 0.00 0.00 94 1012.5
20260905110039 23 26 0.0 0.0 0.00 0.00 0.00 94 1012.4
20260905104533 23 26 0.0 0.0 0.00 0.00 0.00 94 1012.3
20260905103038 23 26 0.0 0.0 0.00 0.00 0.00 94 1012.3
20260905101553 22 26 0.0 0.0 0.00 0.00 0.00 93 1012.1
20260905100035 23 26 0.0 0.0 0.00 0.00 0.00 94 1012.0
20260905094548 23 26 0.0 0.0 0.00 0.00 0.00 94 1012.0